Regional Weather Roundup
Issued by NWS

Home | Current Version | Previous Version | Graphics & Text | Print | Product List | Glossary On
Versions: 1 2 3 4 5 6 7 8 9 10 11 12 13 14 15 16 17 18 19 20 21 22 23 24 25 26 27 28 29 30 31 32 33 34 35 36 37 38 39 40 41 42 43 44 45 46 47 48 49 50
000
ASUS43 KIND 300109
RWRIN

WEATHER ROUNDUP FOR INDIANA
NATIONAL WEATHER SERVICE INDIANAPOLIS IN
900 PM EDT THU SEP 29 2016

NOTE: "FAIR" INDICATES FEW OR NO CLOUDS BELOW 12,000 FEET WITH NO
SIGNIFICANT WEATHER AND/OR OBSTRUCTIONS TO VISIBILITY.

* - STATION DOES NOT REPORT WEATHER SUCH AS PRECIPITATION OR FOG.

+ - STATION NOT QUALITY CONTROLLED BY THE NATIONAL WEATHER SERVICE.
    USE DATA WITH CAUTION...ESPECIALLY DEWPOINT AND RELATIVE
    HUMIDITY OBSERVATIONS.

INZ001>003-010>013-019-020-300200-
NORTHWEST INDIANA

CITY           SKY/WX    TMP DP  RH WIND       PRES   REMARKS
GARY /AIRPORT/ CLOUDY    64  59  82 NE14      30.21R
KNOX *+        CLOUDY    63  41  45 NE9       30.17R
LA PORTE +     CLOUDY    63  63 100 NE10      30.19S
MICHIGAN CITY+ DRIZZLE   61  57  88 CALM      30.20S
MONTICELLO +   CLOUDY    64  48  56 NE3       30.13R
RENSSELAER +   CLOUDY    63  59  88 N8        30.16R
VALPARAISO     CLOUDY    62  57  83 N7        30.19R

$$

LMZ046-743>745-300200-
SOUTHERN LAKE MICHIGAN

STATION/POSITION TIME  TEMP    WIND        PRES    WAVE
                       AIR SEA DIR/SP/G            HT
                 (UTC) (F)     (DEG/KT/KT) (MB)    (FT)
BURNS HARBOR     0040   63      40/ 20/ 23 1022.7R
MICHIGAN CITY    0040   61      20/ 21/ 23   N/A
5NW MICH CITY    0100   62 65   40/ 17/ 21   N/A     7

$$

INZ004-005-014>016-021>024-300200-
NORTH CENTRAL INDIANA

CITY           SKY/WX    TMP DP  RH WIND       PRES   REMARKS
ELKHART        LGT RAIN  59  57  94 N8        30.18S
GOSHEN         LGT RAIN  60  57  89 N14       30.16F
LOGANSPORT +   CLOUDY    63  52  67 CALM      30.14R
PERU/GRISSOM   DRIZZLE   62  56  81 NE7       30.12R
ROCHESTER +    RAIN      63  61  94 NE6       30.16R
SOUTH BEND     MOCLDY    60  57  89 NE14      30.20R
WARSAW +       LGT RAIN  61  61 100 N9        30.15S

$$

INZ006>009-017-018-025>027-300200-
NORTHEAST INDIANA

CITY           SKY/WX    TMP DP  RH WIND       PRES   REMARKS
ANGOLA *+        N/A     61  48  63 NE7       30.15S
AUBURN +       LGT RAIN  61  57  88 N8        30.15S
FORT WAYNE     LGT RAIN  61  59  93 N7G17     30.13S FOG
HUNTINGTON +   LGT RAIN  60  58  95 NE5       30.13S
KENDALLVILLE + LGT RAIN  60  59  97 N9G17     30.15S

$$

INZ028-029-035-036-043>045-051>053-300200-
WEST CENTRAL INDIANA

CITY           SKY/WX    TMP DP  RH WIND       PRES   REMARKS
CRAWFORDSVL +  PTCLDY    58  51  77 N3        30.11S
GREENCASTLE +  CLOUDY    59  54  82 NW3       30.11S
LAFAYETTE      CLOUDY    61  53  75 N3        30.12R
TERRE HAUTE    PTCLDY    55  53  93 CALM      30.11R

$$

INZ030>032-037>040-046>048-054>057-064-065-300200-
CENTRAL INDIANA

CITY           SKY/WX    TMP DP  RH WIND       PRES   REMARKS
FISHERS *+     CLOUDY    63  55  77 NE3       30.11
FRANKFORT +    CLOUDY    66  53  62 NE7       30.14R
GREENWOOD *+   CLOUDY    64  54  68 NE5       30.10R
INDIANAPOLIS   CLOUDY    64  52  64 N6        30.09S
-EAGLE CREEK   CLOUDY    64  52  64 N5        30.10R
KOKOMO *+      LGT RAIN  62  56  80 NE6       30.13S
MARION +       MOCLDY    59  56  87 NE5       30.13S FOG
MT COMFORT *+  CLOUDY    61  54  77 E7        30.11R
SHELBYVILLE    PTCLDY    58  53  84 N5        30.09R
ZIONSVILLE +   CLOUDY    61  52  72 NE5       30.12R

$$

INZ033-034-041-042-049-050-058-059-300200-
EAST CENTRAL INDIANA

CITY           SKY/WX    TMP DP  RH WIND       PRES   REMARKS
MUNCIE         CLOUDY    61  57  87 NE7       30.10S

$$

INZ060-061-067>069-081>083-085>088-300200-
SOUTHWEST INDIANA

CITY           SKY/WX    TMP DP  RH WIND       PRES   REMARKS
EVANSVILLE     MOCLDY    60  54  80 CALM      30.11R
HUNTINGBURG *+   N/A     57  52  82 CALM      30.11R
WASHINGTON +   PTCLDY    58  56  93 MISG      30.10S

$$

INZ062-063-066-070>080-084-089>092-300200-
SOUTH CENTRAL AND SOUTHEAST INDIANA

CITY           SKY/WX    TMP DP  RH WIND       PRES   REMARKS
BLOOMINGTON    MOCLDY    55  52  89 CALM      30.10R
MADISON *+     CLOUDY    55  54  94 CALM      30.11R
NORTH VERNON + CLOUDY   N/A N/A N/A CALM      30.10
SEYMOUR +      CLOUDY    57  54  88 CALM      30.09R

$$




USA.gov is the U.S. government's official web portal to all federal, state and local government web resources and services.